PDT,Max TemperatureF,Mean TemperatureF,Min TemperatureF,Max Dew PointF,MeanDew PointF,Min DewpointF,Max Humidity, Mean Humidity, Min Humidity, Max Sea Level PressureIn, Mean Sea Level PressureIn, Min Sea Level PressureIn, Max VisibilityMiles, Mean VisibilityMiles, Min VisibilityMiles, Max Wind SpeedMPH, Mean Wind SpeedMPH, Max Gust SpeedMPH,PrecipitationIn, CloudCover, Events, WindDirDegrees
2013-5-1,60,47,34,38,34,29,92,62,31,30.62,30.58,30.48,10,10,10,10,3,14,0.00,0,,220
2013-5-2,64,51,37,45,40,35,92,66,39,30.59,30.49,30.42,10,10,10,14,3,17,0.00,1,,311
2013-5-3,68,54,39,48,44,38,96,72,48,30.44,30.37,30.28,10,10,4,12,3,15,0.00,0,,292
2013-5-4,75,59,42,50,45,41,93,61,29,30.28,30.19,30.04,10,10,10,14,4,20,0.00,0,,308
2013-5-5,76,61,46,51,48,41,86,64,41,30.03,29.92,29.81,10,10,10,12,2,15,0.00,0,,220
2013-5-6,79,64,48,54,49,42,93,61,29,29.88,29.84,29.78,10,10,10,13,3,17,0.00,0,,206
2013-5-7,65,58,50,52,50,48,93,78,63,29.99,29.93,29.81,10,10,7,16,10,22,0.00,1,,174
2013-5-8,61,56,51,52,50,48,89,81,72,30.16,30.12,30.01,10,9,5,14,8,21,0.00,3,,171
2013-5-9,65,58,50,52,49,48,93,78,63,30.25,30.20,30.14,10,9,4,13,7,16,0.00,2,,167
2013-5-10,71,61,50,57,51,46,93,75,57,30.23,30.19,30.14,10,9,3,9,4,14,0.00,1,,170
2013-5-11,73,63,53,55,50,47,93,70,47,30.18,30.11,30.01,10,10,8,10,3,13,0.06,3,Rain,181
2013-5-12,65,60,55,57,56,54,100,87,73,30.08,30.04,29.99,10,6,2,16,4,25,0.57,8,Rain,185
2013-5-13,64,57,50,55,51,42,93,78,63,30.19,30.02,29.91,10,9,3,18,6,28,0.19,7,Rain,172
2013-5-14,61,55,48,45,42,34,86,61,36,30.25,30.20,30.15,10,10,8,13,5,17,0.01,4,Rain,166
2013-5-15,66,56,45,50,45,41,96,70,43,30.14,30.08,30.03,10,10,10,9,2,13,0.03,7,Rain,213
2013-5-16,65,57,49,52,50,48,96,76,56,30.04,29.98,29.91,10,9,2,9,3,14,0.02,5,Rain,9
2013-5-17,58,54,50,52,50,48,93,83,72,30.06,29.99,29.93,10,10,7,15,6,23,0.07,6,Rain,165
2013-5-18,60,56,51,51,49,45,93,75,57,30.29,30.16,30.07,10,10,6,12,5,14,0.06,7,Rain,171
2013-5-19,64,57,49,50,48,45,93,73,52,30.42,30.37,30.30,10,10,10,10,3,14,0.00,5,,200
2013-5-20,63,54,45,49,47,43,93,77,60,30.37,30.15,29.91,10,9,2,10,4,14,0.01,2,,190
2013-5-21,53,50,46,48,47,44,93,85,77,29.93,29.84,29.80,10,8,2,9,3,13,0.44,8,Rain,216
2013-5-22,56,52,47,47,45,43,93,80,66,29.97,29.89,29.85,10,10,8,16,6,22,0.18,7,Rain,154
2013-5-23,61,51,41,47,44,39,100,79,57,30.03,29.98,29.93,10,6,0,15,5,20,0.04,5,Fog-Rain,126
2013-5-24,62,51,39,47,42,37,100,76,51,30.05,30.02,29.99,10,8,0,14,5,20,0.00,2,Fog,166
2013-5-25,63,57,51,49,46,43,89,69,48,30.05,30.03,30.01,10,10,10,15,5,21,T,5,,169
2013-5-26,59,55,50,54,51,48,96,88,80,30.02,29.99,29.96,10,8,4,7,2,9,0.49,8,Rain,25
2013-5-27,60,54,48,55,51,46,96,86,75,29.95,29.80,29.72,10,8,2,16,4,23,0.26,6,Rain,61
2013-5-28,60,55,50,53,49,46,93,80,67,29.88,29.82,29.73,10,9,2,18,7,25,0.02,7,Rain,155
2013-5-29,57,54,50,51,49,45,96,84,71,29.97,29.79,29.68,10,10,4,15,6,21,0.05,8,Rain,177
2013-5-30,62,56,50,51,48,44,89,75,60,30.25,30.09,29.97,10,10,9,14,5,20,0.07,7,Rain,163
2013-5-31,65,56,47,52,48,41,96,70,44,30.37,30.31,30.24,10,10,4,10,3,14,T,5,,175